BADBUCHAU Weather Reports


time (UTC)temp
F
wind
direction
speed
knots
gust
knots
rain 1hr
in
rain 24hr
in
rain mn
in
humidity
%
barometer
mb
20260507163209 56 5 4.3 0.0 0.00 0.00 0.05 70 1013.7
20260507160211 56 355 4.3 0.0 0.00 0.00 0.05 69 1013.7
20260507153210 56 292 8.7 0.0 0.00 0.00 0.05 70 1013.6
20260507150210 56 223 7.8 0.0 0.00 0.00 0.05 69 1013.6
20260507143212 56 247 10.4 0.0 0.00 0.00 0.05 69 1013.7
20260507140210 54 246 10.4 0.0 0.00 0.00 0.05 73 1014.1
20260507133210 54 279 8.7 0.0 0.00 0.00 0.05 77 1014.0
20260507130210 51 239 7.8 0.0 0.00 0.00 0.05 85 1014.0
20260507123210 52 239 9.6 0.0 0.00 0.00 0.05 82 1014.1
20260507120211 52 286 10.4 0.0 0.00 0.00 0.05 80 1013.9
20260507113210 51 243 10.4 0.0 0.00 0.00 0.05 83 1013.9
20260507110210 50 229 7.0 0.0 0.00 0.00 0.05 90 1013.9
20260507103216 49 233 8.7 0.0 0.00 0.00 0.04 89 1013.9
20260507100212 49 276 5.2 0.0 0.00 0.00 0.03 89 1013.9
20260507093210 49 261 8.7 0.0 0.00 0.00 0.03 88 1013.7
20260507090211 51 199 12.2 0.0 0.00 0.00 0.02 83 1013.3
20260507083212 50 222 8.7 0.0 0.00 0.00 0.02 89 1013.2
20260507080211 49 207 10.4 0.0 0.00 0.00 0.02 91 1013.0
20260507073212 48 195 13.0 0.0 0.00 0.00 0.02 91 1012.9
20260507070212 47 178 9.6 0.0 0.00 0.00 0.02 91 1012.6
20260507063211 47 178 12.2 0.0 0.00 0.00 0.02 91 1012.2
20260507060211 47 206 9.6 0.0 0.00 0.00 0.01 91 1012.0
20260507053211 47 177 12.2 0.0 0.00 0.00 0.00 91 1011.7
20260507050213 46 175 13.0 0.0 0.00 0.00 0.00 90 1011.3
20260507043211 46 175 12.2 0.0 0.00 0.00 0.00 90 1011.0
20260507040216 46 204 10.4 0.0 0.00 0.00 0.00 89 1010.7
20260507033211 46 184 9.6 0.0 0.00 0.00 0.00 88 1010.5
20260507030211 46 171 10.4 0.0 0.00 0.00 0.00 88 1010.4
20260507023211 46 163 10.4 0.0 0.00 0.00 0.00 88 1010.3
20260507020211 46 178 12.2 0.0 0.00 0.00 0.00 88 1010.3
20260507013212 45 195 12.2 0.0 0.00 0.00 0.00 90 1010.2
20260507010211 45 171 13.9 0.0 0.00 0.00 0.00 91 1010.0
20260507003209 46 165 13.9 0.0 0.00 0.00 0.00 91 1009.7
20260507000209 46 167 11.3 0.0 0.00 0.00 0.00 88 1009.7
20260506233209 47 157 11.3 0.0 0.00 0.00 0.00 87 1009.8
20260506230209 47 195 7.8 0.0 0.00 0.00 0.00 87 1009.8
20260506223209 47 175 8.7 0.0 0.00 0.00 0.00 88 1009.6
20260506220209 47 175 12.2 0.0 0.00 0.00 0.00 88 1009.4
20260506213209 47 172 11.3 0.0 0.00 0.00 0.02 88 1009.3
20260506210210 47 184 10.4 0.0 0.00 0.00 0.02 88 1009.1
20260506203210 47 168 5.2 0.0 0.00 0.00 0.02 88 1009.2
20260506200210 48 178 12.2 0.0 0.00 0.00 0.02 88 1009.0
20260506193215 48 200 13.0 0.0 0.00 0.00 0.02 87 1008.4
20260506190211 48 224 14.8 0.0 0.00 0.00 0.02 86 1008.0
20260506183209 49 180 18.2 0.0 0.00 0.00 0.02 83 1007.6
20260506180216 50 179 17.4 0.0 0.00 0.00 0.02 85 1007.4
20260506173210 50 177 11.3 0.0 0.00 0.00 0.02 90 1007.3
20260506170215 49 204 12.2 0.0 0.00 0.00 0.02 90 1006.6